Location: Eaton
(41.3139°N, 82.0207°W)
Time: 11:49:56
(UTC+00:00)

Cosmos 1340 - Pass Details

Date: 17 June 2021
Orbit: 498 x 504 km, 81.2° (Epoch: 26 July)

Event Time Altitude Azimuth Distance (km) Brightness Sun altitude
Exits shadow 03:10:15 43° 129° (SE) 712 2.9 -17.7°
Maximum altitude 03:10:52 49° 96° (E) 659 2.9 -17.8°
Drops below altitude 10° 03:14:31 10° 21° (NNE) 1,723 5.8 -18.2°
Sets 03:16:42 0° 16° (NNE) 2,613 6.9 -18.4°
